Regional Weather Roundup
Issued by NWS Wakefield, VA

Home | Current Version | Previous Version | Text Only | Print | Product List | Glossary On
Versions: 1 2 3 4 5 6 7 8 9 10 11 12 13 14 15 16 17 18 19 20 21 22 23 24 25 26 27
000
ASUS41 KAKQ 290215
RWRAKQ

REGIONAL WEATHER ROUNDUP
NATIONAL WEATHER SERVICE WAKEFIELD VA
1000 PM EDT FRI APR 28 2017

Note: "fair" indicates few or no clouds below 12,000 feet with no
significant weather and/or obstructions to visibility. * = Denotes
station may not report precipitation (e.g., rain,snow,etc.),
thunder or fog.

VAZ042-051-052>054-056-290300-
NORTHERN VIRGINIA

CITY           SKY/WX    TMP DP  RH WIND       PRES   REMARKS
WASH NATIONAL  MOCLDY    74  64  71 S3        30.03S
DULLES         PTCLDY    74  62  66 SE7       30.03R
FORT BELVOIR   CLEAR     69  63  80 CALM      30.03R
QUANTICO       CLEAR     72  68  87 S5        30.03S
FREDERICKSBRG* CLEAR     71  65  80 SE3       30.02R
STAFFORD*      CLEAR     65  64  97 CALM      30.07R
WARRENTON      CLEAR     71  60  68 SE5       30.02R
CULPEPER*      CLEAR     69  64  85 CALM      30.03R
MANASSAS*        N/A     71  64  78 SW3       30.03R
LEESBURG*      CLEAR     75  64  69 S8        30.04R
WINCHESTER     CLOUDY    70  59  68 SE5       30.01S
FRONT ROYAL*   PTCLDY    73  61  64 S3        30.00F
LURAY*         CLEAR     66  59  77 S3        30.03R
$$

VAZ048-049-060>072-079>083-290300-
CENTRAL AND SOUTH CENTRAL VIRGINIA

CITY           SKY/WX    TMP DP  RH WIND       PRES   REMARKS
RICHMOND       PTCLDY    76  69  79 SE8       30.04R
CHESTERFIELD*  FAIR     N/A N/A N/A S5        30.05S
PETERSBURG*    CLEAR     71  67  87 CALM      30.05S
HANOVER        CLEAR     70  65  84 CALM      30.06R
TAPPAHANNOCK*  PTCLDY    71  64  78 CALM      30.05S
QUINTON*       FAIR      73  72  96 MISG      30.05R
CHARLOTTSVILLE PTCLDY    76  62  62 S7        30.02R
GORDONSVILLE*  PTCLDY    69  64  85 CALM      30.02S
ORANGE*        CLEAR     72  61  68 S3        30.02R
LOUISA*        CLEAR     73  66  78 SE5       30.02R
BUMPASS*       FAIR      70  65  84 CALM      30.04R
FARMVILLE*     CLEAR     75  68  77 S5        30.03R
CREWE*         FAIR      70  70 100 CALM      30.05R
FORT PICKETT*  NOT AVBL
CHASE CITY*    FAIR      72  70  95 CALM      30.06R
CLARKSVILLE*   FAIR      70  70 100 CALM      30.05R
SOUTH HILL*    CLEAR     69  69 100 S5        30.12R
LAWRENCEVILLE* FAIR      74  69  85 S3        30.06R
EMPORIA*       CLEAR     72  68  88 SE5       30.08R
$$

VAZ088>098-290300-
SOUTHEAST VIRGINIA

CITY           SKY/WX    TMP DP  RH WIND       PRES   REMARKS
NORFOLK        CLEAR     80  72  76 S8        30.07R
VIRGINIA BEACH PTCLDY    77  71  82 S8        30.07R
NORFOLK NAVAL  PTCLDY    80  72  76 VRB5      30.09R
WEST POINT*    CLEAR     73  69  87 CALM      30.07R
SALUDA*        FAIR      72  71  96 S5        30.06R
NEWPORT NEWS   CLEAR     77  68  73 S3        30.07R
LANGLEY AFB    CLEAR     76  71  84 S5        30.07R
FORT EUSTIS    CLEAR     77  69  76 S3        30.04R
WILLIAMSBURG*  CLEAR     75  72  88 CALM      30.07R
HR EXEC AP*    FAIR      77  70  78 S8        30.05R
FRANKLIN*      PTCLDY    74  69  83 S5        30.08R
US460-WAKEFLD  CLEAR     72  70  93 CALM      30.06R
$$

VAZ020-022-025-037-045-290300-
WEST CENTRAL AND SOUTHWEST VIRGINIA

CITY           SKY/WX    TMP DP  RH WIND       PRES   REMARKS
STAUNTON*      CLEAR     71  58  64 S5        30.06S
WAYNESBORO*    PTCLDY    71  61  70 S6        30.06R
HOT SPRINGS VA CLEAR     64  52  63 S13G21    30.14S
LYNCHBURG      CLEAR     71  65  81 S7        30.06R
DANVILLE       CLEAR     71  67  87 CALM      30.06R
SOUTH BOSTON*  FAIR      68  67  95 CALM      30.05R
MARTINSVILLE   CLEAR     71  63  73 CALM      30.10R
ROANOKE        PTCLDY    76  63  64 S6        30.06S
BLACKSBURG     PTCLDY    72  63  72 S5        30.13R
DUBLIN*        PTCLDY    73  58  60 SW7       30.11R
MARION*        CLEAR     72  62  70 CALM      30.13R
HILLSVILLE*    CLEAR     68  63  83 S9        30.13R
RICHLANDS*     FAIR      73  59  61 SW9       30.10R
WISE*          CLEAR     70  55  60 SW8       30.11R
ABINGDON*      CLEAR     74  61  63 W5        30.09R
$$

MDZ021>025-VAZ099-100-290300-
SOUTHERN MARYLAND AND THE DELMARVA PENINSULA

CITY           SKY/WX    TMP DP  RH WIND       PRES   REMARKS
PATUXENT RIVER PTCLDY    72  71  97 SE9       30.04S
BAY BRIDGE APT CLEAR     72  64  78 SE6       30.04F
LEONARDTOWN    CLEAR     70  66  88 SE6       30.05F
DOVER          CLEAR     70  70 100 SE6       30.05R
GEORGETOWN     CLEAR     73  67  81 S7        30.09R
EASTON         CLEAR     73  63  68 S5        30.08S
CAMBRIDGE      CLEAR     72  68  88 SE8       30.05S
SALISBURY      CLEAR     71  69  93 S7        30.08R
OCEAN CITY     FOG       65  65 100 VRB3      30.09R VSB 3/4
WALLOPS ISLAND CLEAR     65  65 100 S7        30.09R
ACCOMACK*      CLEAR     68  66  93 S5        30.08R FOG
$$

NCZ012>017-030>032-290300-
NORTH CENTRAL AND EASTERN NORTH CAROLINA

CITY           SKY/WX    TMP DP  RH WIND       PRES   REMARKS
ROANOKE RAPIDS FAIR      77  70  78 S6        30.07R
RALEIGH        PTCLDY    80  65  59 SW12      30.08R
ELIZABETH CITY CLEAR     77  74  90 S12       30.11R
AHOSKIE*         N/A     75  71  87 S5        30.09R
EDENTON*       CLEAR     78  73  84 S10       30.11R
CURRITUCK*     CLEAR     77  74  91 S5        30.11R
KILL DEVIL HLS CLEAR     74  73  98 CALM      30.12R
MANTEO         CLEAR     73  72  96 SW13      30.13R
CAPE HATTERAS  CLEAR     75  72  90 SW13      30.16R FOG
TARBORO*       NOT AVBL
GOLDSBORO      CLEAR     78  78  99 S9        30.09R
WASHINGTON     CLEAR     76  73  90 S8        30.11R
GREENVILLE     CLEAR     79  73  83 S12       30.11R
NEW BERN       CLOUDY    76  74  93 S9G18     30.14R
WILMINGTON     CLOUDY    76  74  93 S9        30.15R
$$

VAZ048-290300-
ELSEWHERE

CITY           SKY/WX    TMP DP  RH WIND       PRES   REMARKS
HARRISBURG PA  MOCLDY    67  56  67 SE6       30.02R
BALTIMORE      PTCLDY    72  61  68 SE5       30.03S
ANNAPOLIS      CLEAR     69  66  90 SE7       30.04R
ANDREWS AFB    CLEAR     71  62  73 S6        30.03S
PHILADELPHIA   PTCLDY    72  57  59 S8        30.06R
HENDERSON NC   CLEAR     71  64  80 CALM      30.07R
GREENSBORO     MOCLDY    75  66  73 SW6       30.08R
ROCKY MOUNT    CLEAR     78  73  84 S7        30.08R
$$

VAZ100-290300-
MARINE

STATION/POSITION TIME  TEMP    WIND        PRES    WAVE   SWELL
                       AIR SEA DIR/SP/G            HT/PER HT/PER
                 (UTC) (F)     (DEG/KT/KT) (MB)    (FT/S) (FT/S)
CAPE MAY NJ      0130   63 61  160/  8/ 11 1018.1R
LEWES DE         0136   71 59  170/  5/  6 1018.3R
15NM E FENWICK I 0050   57 55  170/ 10/ 12 1018.7    4/ 8   3/ 8
WACHAPREAGUE VA  0148   67 70  160/  4/  5 1018.3R
THOMAS POINT MD  0100   67 62  180/ 11/ 12   N/A
GOOSES REEF MD   0150   67     180/  8/ 10 1017.9R
COVE POINT MD    0130   69     180/ 10/ 11 1018.3R
SOLOMONS ISLAND  0130   69 64  140/  4/  5   N/A
BISHOPS HEAD MD  0130   70 71  130/  8/  9 1018.2R
PINEY POINT MD   0130          140/  9/ 10   N/A
POTOMAC MD       0150   68     160/  8/  8 1017.0R
CAMBRIDGE MD     0130   74 67                N/A
LEWISETTA VA     0148   73 69  180/  6/  8 1017.3R
RAPPAHANNOCK LGT 0130          120/ 10/ 10 1018.6R
STINGRAY PT      0150   67     200/  6/  6 1018.1R
YORK RVR RNG VA  0136   68     160/ 11/ 12 1017.3R
YORKTOWN VA      0136   72 67  240/  2/  2 1017.7R
JAMESTOWN VA     0150   76     130/  4/  4   N/A
DOMINION TERM VA 0130   76     150/  5/  7 1018.1R
KIPTOPEKE VA     0130      66  150/  6/  8   N/A
CHES BAY BRIDGE  0136   77 64  200/ 11/ 12 1017.9R
CAPE HENRY VA    0130   76     160/  7/  8   N/A
WILLOUBY STN VA  0130   81     190/ 10/ 12 1018.9R
S CRANEY ISL VA  0130   79     200/  7/  9 1017.7R
CAPE HENRY BUOY  0142      64                N/A     3/ 9
1ST LANDING BUOY 0150   70                 1018.3R
CAPE CHARLES BUO 0151      64                N/A     3/ 8
64NM E OF VA BCH 0050   62 58  200/ 14/ 16 1019.7    4/ 8   3/ 8
DUCK PIER NC     0130   76 58  190/ 13/ 17 1018.9R
44100 DUCK FRF   0105      63                N/A     4/ 7   2/11
44056 DUCK FRF   0130      61                N/A     3/ 8
OREGON INLET NC  0130   74 76  180/ 16/ 19 1020.2R
HATTERAS NC      0136   75 73  200/  9/ 14 1021.0R
DIAMOND SHLS NC  0050   77 76  210/ 16/ 17 1020.8    4/ 8   3/ 8
CAPE LOOKOUT NC  0100   74     190/  9/ 11 1020.5R
$$




USA.gov is the U.S. government's official web portal to all federal, state and local government web resources and services.